This demonstration page uses our WeatherBlox Daily Observations layout. Learn more.

Left ArrowRight Arrow

34.02893, -84.19858

Hourly Observations for January 25, 2018

Temp ( °F °C ) Dew Point ( °F °C ) Humidity (%) Winds ( mph kmh ) Pressure ( in mb ) Visibility ( mi km ) Precip ( " mm )
12:53 am 00:53 Clear 38 3.3 23 -5 55 55 NW 7 11 30.40 1029 10 16 0.00 0.00
1:53 am 01:53 Clear 36 2.2 23 -5 59 59 WNW 6 9 30.39 1029 10 16 0.00 0.00
2:53 am 02:53 Clear 36 2.2 23 -5 59 59 WNW 7 11 30.40 1030 10 16 0.00 0.00
3:53 am 03:53 Clear 34 1.1 22 -5.6 61 61 WNW 6 9 30.42 1030 10 16 0.00 0.00
4:53 am 04:53 Clear 33 0.6 23 -5 66 66 WNW 6 9 30.42 1030 10 16 0.00 0.00
5:53 am 05:53 Clear 29 -1.7 22 -5.6 75 75 Calm 30.46 1031 10 16 0.00 0.00
6:53 am 06:53 Clear 30 -1.1 23 -5 75 75 NW 3 6 30.49 1032 10 16 0.00 0.00
7:53 am 07:53 Sunny 29 -1.7 22 -5.6 75 75 Calm 30.51 1033 10 16 0.00 0.00
8:53 am 08:53 Sunny 36 2.2 26 -3.3 67 67 Calm 30.52 1033 10 16 0.00 0.00
9:53 am 09:53 Sunny 42 5.6 25 -3.9 51 51 VRB 3 6 30.54 1034 10 16 0.00 0.00
10:53 am 10:53 Sunny 47 8.3 24 -4.4 41 41 N 6 9 30.54 1034 10 16 0.00 0.00
11:53 am 11:53 Sunny 51 10.6 21 -6.1 31 31 VRB 5 7 30.53 1034 10 16 0.00 0.00
12:53 pm 12:53 Sunny 54 12.2 19 -7.2 25 25 VRB 3 6 30.50 1033 10 16 0.00 0.00
1:53 pm 13:53 Sunny 54 12.2 19 -7.2 25 25 WSW 3 6 30.49 1032 10 16 0.00 0.00
2:53 pm 14:53 Sunny 55 12.8 17 -8.3 22 22 Calm 30.48 1032 10 16 0.00 0.00
3:53 pm 15:53 Sunny 57 13.9 19 -7.2 23 23 Calm 30.47 1032 10 16 0.00 0.00
4:53 pm 16:53 Sunny 56 13.3 18 -7.8 22 22 Calm 30.48 1032 10 16 0.00 0.00
5:53 pm 17:53 Sunny 54 12.2 17 -8.3 23 23 Calm 30.50 1033 10 16 0.00 0.00
6:53 pm 18:53 Clear 45 7.2 21 -6.1 39 39 Calm 30.52 1034 10 16 0.00 0.00
7:53 pm 19:53 Clear 41 5 22 -5.6 47 47 Calm 30.54 1034 10 16 0.00 0.00
8:53 pm 20:53 Clear 39 3.9 24 -4.4 55 55 Calm 30.55 1035 10 16 0.00 0.00
9:53 pm 21:53 Clear 37 2.8 24 -4.4 59 59 Calm 30.55 1035 10 16 0.00 0.00
10:53 pm 22:53 Clear 34 1.1 24 -4.4 67 67 Calm 30.56 1035 10 16 0.00 0.00
11:53 pm 23:53 Clear 34 1.1 24 -4.4 67 67 Calm 30.57 1035 10 16 0.00 0.00

Powered by AerisWeather